Theta_e
323 323 323 322 322 322 322 323 322 322 322 323 323 323 323 324 324 320 309 317 323 347 345 316 314 315 319 317 334 335 316 312 317 315 315 329 326 331 335 331 333 334 333 337 341
323 322 322 322 322 322 322 322 322 322 321 321 322 323 323 324 318 312 325 343 346 349 312 311 310 312 309 312 324 321 313 317 325 324 318 323 328 326 326 326 328 332 336 339 340
322 322 321 321 321 321 321 321 321 321 321 321 321 323 323 323 313 316 340 343 350 335 313 313 313 312 311 312 322 323 315 320 325 327 326 323 326 328 324 321 328 328 332 336 337
321 321 321 321 321 321 321 320 320 319 320 320 321 323 324 318 300 317 349 348 348 321 312 312 313 313 310 308 318 319 324 322 322 331 327 325 328 324 328 326 334 334 335 336 334
321 320 320 320 320 320 321 320 318 318 319 320 321 323 314 304 310 319 349 349 321 311 309 311 312 313 308 310 312 312 315 319 321 329 328 328 325 325 326 332 337 335 335 334 334
320 320 320 319 319 319 319 318 318 318 319 320 322 324 311 299 318 329 325 318 312 311 311 311 312 314 309 310 310 313 315 315 318 326 329 325 328 322 326 332 335 334 333 334 334
320 320 320 319 319 319 318 317 317 317 319 321 323 321 308 303 321 324 315 308 310 311 309 314 314 309 310 309 314 313 310 313 315 321 325 325 320 319 326 330 331 333 333 334 335
320 319 319 318 318 318 317 316 316 318 320 323 324 313 302 313 318 317 316 315 309 310 312 313 311 308 308 311 309 308 307 303 313 318 320 315 303 318 327 329 328 330 334 334 335
319 319 318 318 318 316 315 314 317 319 322 324 310 308 306 324 314 315 318 314 314 310 310 318 311 305 307 302 300 303 298 302 308 319 316 310 305 321 325 329 327 329 331 333 334
318 318 317 317 316 315 313 313 317 317 321 325 320 304 310 312 309 311 311 316 315 311 310 309 302 300 298 298 294 297 299 302 301 315 316 309 307 320 323 328 328 327 327 330 331
318 317 316 316 315 313 308 308 307 306 312 303 302 309 313 315 310 307 311 311 310 307 300 301 299 295 299 299 301 302 301 299 304 310 311 308 307 316 320 325 326 326 321 323 329
317 316 316 315 313 312 307 303 308 308 303 311 313 311 314 313 308 308 314 307 305 300 300 299 295 302 303 302 300 299 297 298 303 308 304 304 302 305 319 322 326 326 323 323 326
317 316 315 314 312 307 306 308 311 311 301 307 313 312 313 314 310 307 311 307 302 299 298 296 301 305 303 301 299 299 294 297 300 304 302 299 297 300 311 320 326 328 328 326 327
316 315 314 310 307 307 307 312 312 310 298 303 306 313 314 309 304 311 311 308 302 301 300 298 303 303 300 299 299 291 302 302 303 297 292 299 290 296 300 303 311 322 327 327 329
315 314 312 310 303 307 312 312 313 309 292 309 310 317 309 307 304 306 310 307 301 302 300 299 301 301 300 302 301 299 302 299 301 294 291 295 291 295 299 300 302 311 324 327 330
314 313 311 306 302 309 312 311 309 298 291 306 310 307 305 303 305 306 307 308 307 301 300 301 305 304 303 306 304 305 300 297 293 291 287 290 292 293 298 301 305 313 323 327 330
312 310 308 309 305 309 310 308 297 292 306 305 303 304 301 302 304 304 303 301 298 294 292 300 302 304 305 301 303 300 293 288 287 286 287 290 291 294 308 311 313 313 317 326 330
309 307 307 308 307 310 308 303 292 302 303 309 306 303 301 302 303 302 300 297 300 297 294 293 296 304 305 303 300 298 294 289 285 284 289 292 293 301 314 318 320 322 323 322 325
308 304 304 308 310 307 306 295 295 301 307 306 304 301 299 302 302 300 299 298 301 301 296 293 296 307 308 304 304 297 293 296 289 286 287 291 300 306 318 316 317 319 322 323 324
301 305 309 311 312 308 302 295 300 307 308 306 299 302 299 301 300 299 299 304 304 304 302 300 295 301 309 309 309 303 301 294 292 286 286 291 297 305 312 313 315 318 320 322 324
304 308 314 312 309 305 297 297 305 310 309 305 302 301 303 302 301 298 300 307 311 307 305 300 298 300 305 303 300 303 300 297 295 291 290 288 296 313 313 315 314 316 321 321 323
303 305 313 309 303 297 297 302 305 308 310 306 306 304 304 304 304 302 304 305 312 310 305 303 298 297 299 303 307 303 299 299 294 294 292 292 296 316 316 317 315 315 321 323 323
301 304 314 309 297 296 300 305 308 307 306 306 306 306 306 303 301 305 307 311 312 309 303 304 296 293 296 299 303 302 305 298 296 294 293 292 294 317 315 316 314 316 320 323 325
305 306 306 304 300 301 298 302 305 310 309 309 306 306 305 303 303 302 306 310 311 312 322 311 296 295 293 294 298 299 305 306 297 294 296 300 306 311 311 313 315 317 321 322 324
306 303 304 300 303 302 301 302 306 304 308 307 305 304 302 298 300 300 303 304 309 310 306 302 295 298 297 302 303 302 306 308 303 300 297 300 303 307 311 312 315 317 321 322 324
301 302 303 302 304 301 300 301 304 304 305 302 302 302 302 297 298 296 298 299 300 302 300 298 294 293 292 299 302 300 302 306 306 306 305 303 300 309 314 316 315 317 320 321 324
305 304 305 303 302 299 299 303 305 306 305 307 306 302 300 300 302 300 300 301 299 297 295 296 294 291 289 295 297 292 299 302 304 305 304 297 301 309 309 311 314 316 320 320 322
Wind_Speed
13 13 14 14 15 14 14 14 14 14 13 14 14 14 14 14 16 2 7 11 7 3 1 2 2 4 4 4 5 3 4 2 7 6 6 2 6 4 2 5 3 2 3 13 18
14 14 14 14 15 15 14 14 14 14 13 13 13 14 13 13 3 7 14 11 11 0 1 3 3 4 2 2 3 5 4 7 8 8 7 6 7 8 5 2 2 2 13 18 19
15 16 16 15 15 15 15 14 14 13 13 13 13 13 13 9 3 7 6 17 7 7 1 1 3 2 2 3 5 5 6 7 8 12 6 6 5 4 8 6 7 18 19 19 19
16 16 16 17 16 16 15 15 14 13 13 12 13 13 14 1 3 3 1 11 10 5 1 3 3 6 3 2 5 4 12 9 6 8 9 7 4 5 7 5 12 19 24 20 18
16 17 17 17 17 17 16 15 15 13 12 11 11 11 3 2 9 3 5 7 6 4 2 1 2 2 3 6 7 2 5 7 2 15 11 6 5 2 6 6 14 18 20 21 18
16 16 16 17 17 17 17 16 14 13 11 10 9 9 1 2 2 4 7 6 4 4 1 4 4 4 4 4 2 5 5 8 8 8 8 8 2 3 5 7 16 20 20 19 22
18 17 17 17 18 18 18 17 15 12 10 8 6 3 1 10 4 4 6 3 5 5 3 5 2 4 5 7 5 4 7 8 5 5 6 7 1 9 10 14 18 18 18 18 18
18 18 18 19 19 19 18 17 15 11 7 6 3 1 8 4 2 3 3 4 3 4 3 5 3 3 2 4 8 7 4 6 7 3 6 11 11 8 15 18 19 17 17 19 20
18 18 19 19 19 19 19 21 12 5 4 1 1 1 9 7 3 6 6 3 1 1 3 5 4 2 7 4 6 6 2 6 10 5 5 5 8 3 14 16 15 16 17 17 18
19 19 19 19 18 18 22 10 1 1 3 4 3 3 4 3 3 5 4 4 2 3 5 4 6 4 4 5 3 2 6 8 6 5 2 4 8 6 15 17 18 15 12 13 17
19 19 20 20 19 16 11 2 3 2 0 7 4 3 5 7 2 3 5 4 3 6 2 4 5 6 10 7 6 3 4 6 14 4 4 6 8 10 16 14 16 14 9 8 17
20 20 21 21 19 12 1 1 1 2 8 10 4 6 6 0 4 2 7 4 4 5 3 6 7 12 5 3 5 5 4 8 9 4 1 1 8 7 14 21 20 20 17 14 12
20 20 21 23 23 2 1 6 2 5 0 8 6 6 6 8 7 8 8 4 4 4 4 7 9 8 2 7 4 9 5 6 4 6 4 4 9 7 7 10 15 18 20 18 15
20 19 19 27 2 4 5 3 6 5 5 7 3 7 5 6 3 6 7 6 1 8 6 6 8 5 4 8 6 4 8 7 4 3 2 4 7 7 3 9 10 19 17 18 17
20 18 13 7 6 3 3 7 6 4 3 1 3 1 3 8 2 3 4 5 8 7 6 9 5 5 5 8 7 10 2 2 1 3 2 3 4 11 7 9 8 14 15 17 19
20 16 14 1 2 9 10 8 3 7 2 2 4 5 5 1 2 3 4 3 2 4 3 9 3 5 10 5 6 3 2 7 5 3 4 3 5 8 10 10 10 7 7 15 17
23 15 8 4 5 3 6 5 6 3 4 3 5 5 4 5 4 6 7 8 6 3 3 7 5 5 4 2 2 7 8 5 6 7 6 1 4 1 16 18 16 17 7 6 9
25 24 5 7 4 5 3 6 2 3 5 4 3 4 5 4 4 2 6 3 4 4 2 1 9 5 3 7 6 3 7 7 3 1 6 1 5 4 18 17 20 16 15 18 8
25 1 2 5 11 3 6 3 7 6 4 4 2 5 2 4 2 2 4 3 7 9 7 3 5 7 3 3 6 2 1 4 7 3 3 3 7 7 26 27 28 26 22 20 17
3 4 4 5 11 4 6 5 5 5 4 3 2 3 2 3 7 6 5 4 6 15 6 3 2 3 6 7 7 6 4 4 5 2 3 5 5 7 22 23 22 24 23 22 22
2 3 3 3 3 6 4 7 6 6 1 3 1 1 2 3 6 6 8 3 4 3 6 5 4 7 6 7 3 7 5 6 6 4 4 0 1 7 11 10 14 16 16 19 18
3 3 2 1 5 1 3 6 5 6 4 3 5 1 1 2 6 4 4 6 10 1 5 4 5 4 5 2 6 5 4 5 6 4 2 4 4 4 7 9 13 15 17 17 18
2 2 3 4 1 2 5 5 5 4 3 1 4 5 4 5 5 5 6 5 10 6 2 3 4 4 7 8 7 8 7 3 5 3 2 4 3 7 5 6 7 10 12 14 16
2 3 4 3 1 4 2 6 5 1 5 5 3 4 6 9 8 4 2 4 8 5 9 10 4 6 6 4 2 5 5 5 4 4 4 3 4 9 14 13 11 12 10 11 11
3 0 3 2 3 2 4 3 4 3 4 9 8 6 4 5 5 5 5 7 6 11 6 7 4 3 2 8 8 4 5 8 6 2 4 3 3 5 7 9 8 4 7 9 11
2 3 5 2 5 3 3 4 2 3 5 4 8 4 6 6 3 2 3 3 1 7 5 4 3 3 2 4 9 11 8 6 7 5 5 5 0 3 7 8 10 8 11 7 7
2 2 3 4 6 3 4 2 4 2 9 4 6 4 5 4 5 5 5 3 2 4 3 3 5 3 1 3 5 6 4 2 2 3 1 0 2 5 7 10 7 9 10 12 9
Wind_Direction
346 342 340 337 334 332 328 328 327 327 324 323 324 324 326 326 315 207 253 222 181 162 133 246 221 194 163 208 147 125 57 282 190 193 248 226 192 138 123 151 203 202 176 144 145
345 342 340 337 333 332 328 325 324 325 324 321 322 321 325 332 304 257 246 237 216 353 314 34 324 314 299 205 162 132 152 235 188 171 209 209 192 153 139 187 258 101 104 134 139
344 342 340 337 334 333 329 326 326 325 324 321 318 319 320 323 301 250 250 225 198 145 231 248 250 213 257 147 194 184 220 221 215 187 193 196 230 154 137 229 202 157 146 148 155
343 340 337 334 334 332 329 327 324 323 321 319 316 319 318 215 128 270 255 224 124 142 246 296 27 356 297 323 209 199 237 253 130 182 159 193 139 179 191 246 158 159 155 158 168
340 337 334 334 332 331 327 325 322 318 316 314 314 321 330 333 253 291 65 115 107 132 206 10 18 303 329 315 319 55 337 290 65 164 169 136 198 198 197 131 142 153 161 166 177
337 335 332 332 331 329 326 323 319 313 309 307 310 318 326 295 282 151 119 109 120 165 121 171 213 261 258 262 329 284 291 291 288 161 156 155 193 159 174 142 163 165 175 179 177
335 334 331 330 330 328 324 320 314 307 300 296 298 296 61 236 22 122 126 200 180 160 180 231 193 51 312 321 303 306 356 333 273 144 166 115 314 221 166 169 180 178 185 186 194
332 331 329 329 328 325 319 315 306 294 287 287 238 224 247 236 51 264 158 307 176 208 234 262 194 237 251 327 357 9 40 7 294 254 201 148 265 215 170 172 191 190 185 196 202
330 329 327 325 325 322 319 315 298 256 227 164 130 97 273 311 165 219 156 213 97 276 286 280 29 71 19 48 4 3 314 314 319 200 112 189 251 147 174 184 191 193 201 200 205
328 327 325 323 323 325 323 302 161 124 187 189 250 341 275 271 234 169 185 160 182 26 2 44 46 37 31 70 229 294 331 314 267 284 176 242 259 170 185 187 204 197 195 203 199
326 325 324 323 324 331 341 36 21 12 145 205 195 255 265 287 234 187 148 107 94 48 140 5 48 254 245 195 201 230 227 262 280 273 249 247 261 185 196 207 205 206 193 212 217
325 325 324 323 326 319 184 70 116 147 306 229 221 281 277 278 333 257 119 118 120 203 80 7 261 248 263 220 221 206 276 282 270 344 206 215 274 238 191 214 206 204 212 211 208
323 325 326 324 325 119 198 237 290 320 164 294 185 189 213 146 202 235 133 141 141 158 168 172 235 47 351 295 298 279 207 253 227 331 358 358 298 272 212 222 218 224 218 212 197
321 325 329 326 334 326 272 235 299 191 56 275 263 264 158 142 257 205 165 140 126 196 170 230 285 236 268 253 169 263 235 233 285 63 268 66 280 305 241 216 217 227 217 210 206
319 322 326 330 301 265 286 324 328 59 28 130 209 75 142 146 195 210 186 63 185 197 112 250 260 272 237 224 168 227 100 94 350 89 36 341 57 268 353 312 262 239 211 209 204
315 319 326 135 243 247 311 318 76 39 294 286 165 152 102 298 279 92 151 80 156 187 218 240 257 216 219 233 183 62 42 38 54 69 33 265 124 302 349 308 312 328 216 202 202
313 309 296 282 229 340 306 40 39 134 316 233 203 147 160 190 240 170 164 192 193 104 322 315 267 268 176 232 52 77 53 351 355 13 219 187 60 332 3 6 31 25 4 236 234
317 311 223 209 257 315 43 55 181 244 255 284 145 74 162 161 257 195 116 204 243 82 95 102 341 340 180 201 165 70 139 150 247 215 271 115 88 64 13 1 17 29 12 9 280
318 323 213 246 201 331 76 87 212 211 263 300 41 95 245 221 195 134 177 219 210 167 182 154 274 306 26 116 119 184 140 182 104 25 29 322 338 288 1 4 2 356 3 5 341
317 332 261 118 152 86 78 235 243 212 330 322 120 156 206 221 168 148 185 228 230 187 156 216 333 321 330 52 27 101 143 38 12 69 342 352 67 325 347 346 346 351 358 354 353
335 31 306 161 129 51 159 234 272 268 246 211 72 40 230 268 197 171 195 302 344 32 131 135 123 306 39 18 348 12 14 48 111 123 159 13 314 344 329 335 335 336 352 5 356
343 56 329 40 60 44 186 203 277 285 21 303 97 115 212 336 35 86 90 349 323 29 79 3 119 91 164 296 85 80 39 108 111 284 87 136 218 358 332 335 352 348 347 358 12
64 263 343 71 126 285 292 295 253 267 256 293 50 49 47 28 94 56 69 316 1 74 105 117 13 82 340 354 7 57 328 330 105 77 24 134 207 357 338 19 11 341 356 2 1
79 63 337 46 186 166 347 281 290 109 66 88 17 69 63 22 5 82 39 353 354 54 51 84 59 140 166 191 143 70 332 342 97 103 159 166 318 334 344 355 5 355 354 352 2
29 335 175 280 288 313 182 272 307 41 60 31 20 36 108 54 20 25 358 350 358 355 44 89 106 70 94 96 87 76 30 18 64 105 120 155 161 282 310 320 329 307 340 5 4
59 37 350 266 306 288 160 19 3 36 51 10 106 21 84 112 167 171 27 35 6 344 42 11 149 136 57 91 106 81 31 30 31 39 104 125 273 245 295 318 336 348 340 356 349
320 339 104 295 329 61 329 10 347 98 20 77 147 106 83 159 200 221 202 241 273 16 29 60 123 82 223 97 141 34 344 60 79 21 34 277 295 326 314 320 302 328 337 330 337